Content
SEND FEEDBACK

Daily
Averages
Monthly
Summary
Germany

HANNOVER, GERMANY


Home > Europe > Germany
Elevation: 179 feet     Latitude: 52 27N     Longitude: 009 41E

WEATHER
 
SELECT A DAY
Number of Records: 353,723;   Date Range: 7/1/96 - 7/20/14
 
SHARE

PRINT THIS DATA

[ ← Previous Day ]
WEATHER ALMANAC - JANUARY 31, 2013
[ Next Day → ]
[ °C ]   °F
Weather ElementAverageHighLow
Temperature44 °F46.4 °F (12:20 pm)41 °F (2:20 pm)
Dewpoint36.3 °F39.2 °F (4:20 pm)33.8 °F (2:20 am)
Humidity72.2 %87 % (2:20 pm)57 % (1:00 pm)
Barometer29.73 in29.85 in (7:00 am)29.62 in (3:50 pm)
Wind Speed19.4 mph26.5 mph (6:50 am)
Wind Gust41.4 mph (4:50 am)
Weather ElementAverage
Visibility8.3 mi
Wind DirectionWSW (261.5 °)

Weather ElementTotal
Precipitation---
Heating Degree Days21.3 (Base 65)
Averaged from 67 records on January 31, 2013
WEATHER CONDITIONS BREAKOUT
WIND DIRECTION BREAKOUT
WEATHER BY HOUR - JANUARY 31, 2013
[ °C ]   °F
Local TimeTemperatureDewpointHumidityBarometerVisibilityWind DirectionWind SpeedGust SpeedPrecipitationEventsConditions
12:20 AM44.6 °F37.4 °F76 %29.71 in6.2 miWest (280°)21.9 mph34.5 mphScattered Clouds
12:50 AM44.6 °F37.4 °F76 %29.71 in6.2 miWest (280°)23.0 mph36.8 mphScattered Clouds
1:00 AM45.0 °F37.0 °F66 %29.73 in7.0 miWest (270°)20.1 mphThunderstormLight Thunderstorm
1:20 AM44.6 °F37.4 °F76 %29.74 in6.2 miWest (280°)23.0 mph34.5 mphScattered Clouds
1:50 AM44.6 °F37.4 °F76 %29.74 in6.2 miWest (260°)17.3 mph31.1 mphScattered Clouds
2:00 AM45.0 °F36.0 °F63 %29.76 in9.0 miWest (260°)17.9 mphPartly Cloudy
2:20 AM44.6 °F33.8 °F66 %29.77 in6.2 miWest (280°)19.6 mphPartly Cloudy
2:50 AM44.6 °F35.6 °F71 %29.77 in6.2 miWest (270°)17.3 mph31.1 mphScattered Clouds
3:00 AM44.0 °F35.0 °F59 %29.79 in16.0 miWest (270°)17.9 mphPartly Cloudy
3:20 AM44.6 °F35.6 °F71 %29.77 in6.2 miWest (260°)18.4 mph36.8 mphScattered Clouds
3:50 AM44.6 °F35.6 °F71 %29.80 in6.2 miWest (270°)21.9 mph33.4 mphScattered Clouds
4:20 AM44.6 °F35.6 °F71 %29.80 in6.2 miWest (260°)17.3 mph29.9 mphMostly Cloudy
4:50 AM44.6 °F35.6 °F71 %29.80 in6.2 miWest (270°)25.3 mph41.4 mphMostly Cloudy
5:00 AM44.0 °F35.0 °F61 %29.82 in16.0 miWest (260°)20.1 mphMostly Cloudy
5:20 AM44.6 °F35.6 °F71 %29.80 in6.2 miWest (260°)19.6 mph35.7 mphMostly Cloudy
5:50 AM44.6 °F35.6 °F71 %29.80 in6.2 miWest (280°)25.3 mph39.1 mphMostly Cloudy
6:00 AM44.0 °F35.0 °F61 %29.83 in16.0 miWest (270°)20.1 mphMostly Cloudy
6:20 AM44.6 °F35.6 °F71 %29.83 in6.2 miWest (280°)24.2 mph36.8 mphMostly Cloudy
6:50 AM44.6 °F35.6 °F71 %29.83 in6.2 miWest (280°)26.5 mph38.0 mphMostly Cloudy
7:00 AM44.0 °F35.0 °F61 %29.85 in16.0 miWest (260°)20.1 mphMostly Cloudy
7:20 AM42.8 °F35.6 °F76 %29.83 in6.2 miWest (280°)23.0 mph34.5 mphMostly Cloudy
7:50 AM42.8 °F35.6 °F76 %29.83 in6.2 miWest (270°)23.0 mph34.5 mphMostly Cloudy
8:00 AM44.0 °F35.0 °F60 %29.85 in19.0 miWest (260°)17.9 mphMostly Cloudy
8:20 AM42.8 °F35.6 °F76 %29.83 in6.2 miWest (270°)20.7 mphScattered Clouds
8:50 AM42.8 °F35.6 °F76 %29.83 in6.2 miWest (270°)23.0 mph36.8 mphMostly Cloudy
9:00 AM43.0 °F36.0 °F67 %29.85 in16.0 miWSW (250°)17.9 mphPartly Cloudy
9:20 AM42.8 °F35.6 °F76 %29.80 in6.2 miWest (260°)20.7 mphMostly Cloudy
9:50 AM44.6 °F35.6 °F71 %29.80 in6.2 miWest (260°)19.6 mphMostly Cloudy
10:20 AM44.6 °F35.6 °F71 %29.80 in6.2 miWSW (240°)15.0 mph27.6 mphMostly Cloudy
10:50 AM44.6 °F35.6 °F71 %29.80 in6.2 miWest (260°)18.4 mphMostly Cloudy
11:00 AM45.0 °F36.0 °F61 %29.81 in16.0 miWSW (240°)17.9 mphScattered Clouds
11:20 AM44.6 °F35.6 °F71 %29.77 in6.2 miWSW (240°)16.1 mph28.8 mphMostly Cloudy
11:50 AM44.6 °F37.4 °F76 %29.74 in6.2 miWest (260°)17.3 mph28.8 mphMostly Cloudy
12:00 PM45.0 °F36.0 °F62 %29.77 in16.0 miWSW (240°)17.9 mphScattered Clouds
12:20 PM46.4 °F35.6 °F66 %29.74 in6.2 miWSW (250°)18.4 mphMostly Cloudy
12:50 PM46.4 °F35.6 °F66 %29.71 in6.2 miWSW (240°)16.1 mph29.9 mphMostly Cloudy
1:00 PM46.0 °F36.0 °F57 %29.74 in14.0 miWSW (240°)15.7 mphOvercast
1:20 PM44.6 °F35.6 °F71 %29.68 in6.2 miWSW (250°)21.9 mph38.0 mphRainLight Rain
1:50 PM42.8 °F37.4 °F81 %29.68 in6.2 miWSW (240°)19.6 mph31.1 mphRainLight Rain
2:00 PM43.0 °F37.0 °F74 %29.70 in6.0 miWSW (240°)20.1 mphRainLight Rain
2:20 PM41.0 °F37.4 °F87 %29.68 in6.2 miWest (260°)24.2 mphRainLight Rain
2:50 PM42.8 °F37.4 °F81 %29.65 in6.2 miWest (260°)20.7 mph32.2 mphRainLight Rain
3:00 PM42.0 °F38.0 °F79 %29.68 in16.0 miWSW (240°)20.1 mphRainLight Rain
3:20 PM41.0 °F37.4 °F87 %29.65 in6.2 miWSW (250°)21.9 mphRainLight Rain Showers
3:50 PM41.0 °F37.4 °F87 %29.62 in6.2 miSW (230°)15.0 mph26.5 mphRainLight Rain Showers
4:20 PM42.8 °F39.2 °F87 %29.62 in6.2 miWSW (250°)20.7 mph36.8 mphRainLight Rain Showers
4:50 PM42.8 °F37.4 °F81 %29.62 in6.2 miWest (260°)19.6 mphMostly Cloudy
5:00 PM42.0 °F38.0 °F82 %29.64 in16.0 miWSW (240°)15.7 mphRainLight Rain Showers
5:20 PM42.8 °F37.4 °F81 %29.62 in6.2 miWest (270°)18.4 mphMostly Cloudy
5:50 PM42.8 °F37.4 °F81 %29.62 in6.2 miWest (270°)18.4 mphRainLight Rain Showers
6:00 PM43.0 °F38.0 °F76 %29.64 in12.0 miWest (260°)13.4 mphRainLight Rain Showers
6:20 PM42.8 °F37.4 °F81 %29.62 in6.2 miWest (260°)17.3 mph28.8 mphScattered Clouds
6:50 PM44.6 °F37.4 °F76 %29.65 in6.2 miWest (270°)17.3 mph28.8 mphMostly Cloudy
7:00 PM44.0 °F38.0 °F72 %29.66 in12.0 miWest (270°)17.9 mphRainLight Rain Showers
7:20 PM44.6 °F37.4 °F76 %29.65 in6.2 miWNW (290°)17.3 mphMostly Cloudy
7:50 PM44.6 °F37.4 °F76 %29.65 in6.2 miWest (280°)20.7 mph34.5 mphMostly Cloudy
8:00 PM45.0 °F38.0 °F68 %29.68 in12.0 miWest (260°)15.7 mphMostly Cloudy
8:20 PM44.6 °F37.4 °F76 %29.65 in6.2 miWest (270°)19.6 mph31.1 mphMostly Cloudy
8:50 PM44.6 °F35.6 °F71 %29.68 in6.2 miWest (280°)24.2 mph35.7 mphMostly Cloudy
9:00 PM45.0 °F36.0 °F61 %29.69 in12.0 miWest (270°)17.9 mphMostly Cloudy
9:20 PM44.6 °F35.6 °F71 %29.68 in6.2 miWest (260°)17.3 mph29.9 mphMostly Cloudy
9:50 PM44.6 °F35.6 °F71 %29.68 in6.2 miWest (260°)17.3 mph28.8 mphMostly Cloudy
10:20 PM44.6 °F35.6 °F71 %29.68 in6.2 miWest (260°)15.0 mph26.5 mphMostly Cloudy
10:50 PM44.6 °F35.6 °F71 %29.68 in6.2 miWest (260°)17.3 mph31.1 mphMostly Cloudy
11:00 PM45.0 °F35.0 °F58 %29.70 in12.0 miWest (260°)17.9 mphMostly Cloudy
11:20 PM44.6 °F35.6 °F71 %29.68 in6.2 miWSW (250°)19.6 mph36.8 mphMostly Cloudy
11:50 PM44.6 °F35.6 °F71 %29.68 in6.2 miWest (270°)25.3 mph38.0 mphMostly Cloudy
Hourly data recorded from EDDV, located miles away from Hannover, Germany







STORIES FROM OUR PARTNERS